| time (UTC) | temp F | wind direction | speed MPH | gust MPH | rain 1hr in | rain 24hr in | rain mn in | humidity % | barometer mb |
| 20260905163019 | 74 | 53 | 2.0 | 4.0 | 0.00 | 0.00 | 0.00 | 92 | 1013.4 |
| 20260905162514 | 74 | 31 | 0.0 | 4.0 | 0.00 | 0.00 | 0.00 | 93 | 1013.4 |
| 20260905162008 | 74 | 161 | 0.0 | 4.0 | 0.00 | 0.00 | 0.00 | 93 | 1013.8 |
| 20260905161503 | 74 | 51 | 2.0 | 5.0 | 0.00 | 0.00 | 0.00 | 93 | 1013.6 |
| 20260905161000 | 73 | 22 | 2.0 | 6.0 | 0.00 | 0.00 | 0.00 | 94 | 1013.3 |
| 20260905160459 | 73 | 52 | 2.0 | 8.0 | 0.00 | 0.00 | 0.00 | 94 | 1013.1 |
| 20260905155959 | 73 | 89 | 0.0 | 3.0 | 0.00 | 0.00 | 0.00 | 95 | 1013.2 |
| 20260905155454 | 73 | 190 | 2.0 | 3.0 | 0.00 | 0.00 | 0.00 | 95 | 1013.2 |
| 20260905154953 | 73 | 131 | 2.0 | 4.0 | 0.00 | 0.00 | 0.00 | 95 | 1013.2 |
| 20260905154448 | 73 | 10 | 4.0 | 7.0 | 0.00 | 0.00 | 0.00 | 94 | 1013.3 |
| 20260905153944 | 73 | 47 | 3.0 | 5.0 | 0.00 | 0.00 | 0.00 | 95 | 1013.3 |
| 20260905153440 | 73 | 63 | 3.0 | 7.0 | 0.00 | 0.00 | 0.00 | 95 | 1013.1 |
| 20260905152939 | 73 | 65 | 2.0 | 6.0 | 0.00 | 0.00 | 0.00 | 95 | 1013.3 |
| 20260905152439 | 72 | 40 | 2.0 | 6.0 | 0.00 | 0.00 | 0.00 | 95 | 1013.6 |
| 20260905151928 | 73 | 87 | 2.0 | 3.0 | 0.00 | 0.00 | 0.00 | 95 | 1013.3 |
| 20260905151424 | 72 | 82 | 1.0 | 4.0 | 0.00 | 0.00 | 0.00 | 95 | 1013.5 |
| 20260905150918 | 72 | 108 | 1.0 | 5.0 | 0.00 | 0.00 | 0.00 | 96 | 1013.3 |
| 20260905150413 | 72 | 62 | 2.0 | 5.0 | 0.00 | 0.00 | 0.00 | 96 | 1013.4 |
| 20260905145909 | 72 | 32 | 3.0 | 5.0 | 0.00 | 0.00 | 0.00 | 96 | 1013.0 |
| 20260905145409 | 72 | 40 | 3.0 | 4.0 | 0.00 | 0.00 | 0.00 | 96 | 1013.1 |
| 20260905144904 | 72 | 212 | 0.0 | 3.0 | 0.00 | 0.00 | 0.00 | 96 | 1013.1 |
| 20260905144359 | 72 | 56 | 2.0 | 4.0 | 0.00 | 0.00 | 0.00 | 96 | 1013.0 |
| 20260905143857 | 72 | 50 | 3.0 | 7.0 | 0.00 | 0.00 | 0.00 | 96 | 1012.9 |
| 20260905143351 | 72 | 48 | 0.0 | 5.0 | 0.00 | 0.00 | 0.00 | 97 | 1012.8 |
| 20260905142846 | 72 | 145 | 2.0 | 5.0 | 0.00 | 0.00 | 0.00 | 96 | 1012.9 |
| 20260905142344 | 72 | 30 | 2.0 | 5.0 | 0.00 | 0.00 | 0.00 | 96 | 1012.7 |
| 20260905141841 | 72 | 150 | 3.0 | 5.0 | 0.00 | 0.00 | 0.00 | 97 | 1012.7 |
| 20260905141336 | 71 | 144 | 2.0 | 6.0 | 0.00 | 0.00 | 0.00 | 97 | 1012.7 |
| 20260905140832 | 71 | 179 | 2.0 | 3.0 | 0.00 | 0.00 | 0.00 | 97 | 1012.7 |
| 20260905140332 | 72 | 54 | 3.0 | 8.0 | 0.00 | 0.00 | 0.00 | 96 | 1012.7 |
| 20260905135830 | 72 | 42 | 0.0 | 3.0 | 0.00 | 0.00 | 0.00 | 97 | 1012.6 |
| 20260905135326 | 72 | 17 | 0.0 | 5.0 | 0.00 | 0.00 | 0.00 | 97 | 1012.6 |
| 20260905134821 | 71 | 71 | 2.0 | 7.0 | 0.00 | 0.00 | 0.00 | 96 | 1012.5 |
| 20260905134315 | 72 | 67 | 3.0 | 7.0 | 0.00 | 0.00 | 0.00 | 97 | 1012.5 |
| 20260905133814 | 72 | 305 | 1.0 | 5.0 | 0.00 | 0.00 | 0.00 | 97 | 1012.6 |
| 20260905133310 | 71 | 353 | 1.0 | 6.0 | 0.00 | 0.00 | 0.00 | 97 | 1012.2 |
| 20260905132809 | 71 | 51 | 3.0 | 11.0 | 0.00 | 0.00 | 0.00 | 97 | 1012.0 |
| 20260905132306 | 71 | 154 | 3.0 | 4.0 | 0.00 | 0.00 | 0.00 | 97 | 1011.9 |
| 20260905131759 | 71 | 144 | 3.0 | 5.0 | 0.00 | 0.00 | 0.00 | 98 | 1011.9 |
| 20260905131254 | 71 | 349 | 0.0 | 5.0 | 0.00 | 0.00 | 0.00 | 99 | 1011.9 |
| 20260905130749 | 71 | 101 | 2.0 | 5.0 | 0.00 | 0.00 | 0.00 | 99 | 1011.8 |
| 20260905130248 | 71 | 37 | 2.0 | 3.0 | 0.00 | 0.00 | 0.00 | 99 | 1011.6 |
| 20260905125744 | 71 | 113 | 2.0 | 3.0 | 0.00 | 0.00 | 0.00 | 99 | 1011.6 |
| 20260905125238 | 71 | 172 | 1.0 | 6.0 | 0.00 | 0.00 | 0.00 | 99 | 1011.5 |
| 20260905124735 | 70 | 125 | 1.0 | 9.0 | 0.00 | 0.00 | 0.00 | 99 | 1011.1 |
| 20260905124231 | 70 | 138 | 2.0 | 6.0 | 0.00 | 0.00 | 0.00 | 99 | 1011.1 |
| 20260905123726 | 70 | 343 | 1.0 | 7.0 | 0.00 | 0.00 | 0.00 | 99 | 1011.0 |
| 20260905123223 | 70 | 46 | 3.0 | 4.0 | 0.00 | 0.00 | 0.00 | 99 | 1011.5 |
| 20260905122722 | 70 | 54 | 1.0 | 7.0 | 0.00 | 0.00 | 0.00 | 99 | 1011.1 |
| 20260905122217 | 70 | 35 | 3.0 | 4.0 | 0.00 | 0.00 | 0.00 | 99 | 1011.1 |
| 20260905121712 | 70 | 48 | 1.0 | 5.0 | 0.00 | 0.00 | 0.00 | 99 | 1011.1 |
| 20260905121209 | 70 | 48 | 4.0 | 5.0 | 0.00 | 0.00 | 0.00 | 99 | 1011.2 |
| 20260905120707 | 70 | 38 | 3.0 | 8.0 | 0.00 | 0.00 | 0.00 | 99 | 1011.2 |
| 20260905120201 | 70 | 113 | 1.0 | 3.0 | 0.00 | 0.00 | 0.00 | 99 | 1011.1 |
| 20260905115656 | 70 | 87 | 0.0 | 5.0 | 0.00 | 0.00 | 0.00 | 99 | 1010.9 |
| 20260905115151 | 69 | 68 | 2.0 | 5.0 | 0.00 | 0.00 | 0.00 | 99 | 1011.2 |
| 20260905114651 | 69 | 9 | 1.0 | 4.0 | 0.00 | 0.00 | 0.00 | 99 | 1011.3 |
| 20260905114149 | 69 | 69 | 2.0 | 6.0 | 0.00 | 0.00 | 0.00 | 99 | 1011.3 |
| 20260905113643 | 69 | 85 | 0.0 | 5.0 | 0.00 | 0.00 | 0.00 | 99 | 1011.2 |
| 20260905113138 | 69 | 47 | 3.0 | 9.0 | 0.00 | 0.00 | 0.00 | 99 | 1011.1 |
| 20260905112633 | 69 | 77 | 0.0 | 7.0 | 0.00 | 0.00 | 0.00 | 99 | 1010.8 |
| 20260905112130 | 69 | 28 | 5.0 | 6.0 | 0.00 | 0.00 | 0.00 | 99 | 1011.0 |
| 20260905111629 | 70 | 50 | 0.0 | 4.0 | 0.00 | 0.00 | 0.00 | 99 | 1011.3 |
| 20260905111128 | 70 | 65 | 3.0 | 5.0 | 0.00 | 0.00 | 0.00 | 99 | 1010.9 |
| 20260905110628 | 70 | 30 | 3.0 | 5.0 | 0.00 | 0.00 | 0.00 | 99 | 1010.4 |
| 20260905110123 | 70 | 24 | 2.0 | 4.0 | 0.00 | 0.00 | 0.00 | 99 | 1010.8 |
| 20260905105618 | 70 | 18 | 0.0 | 4.0 | 0.00 | 0.00 | 0.00 | 99 | 1010.8 |
| 20260905105117 | 70 | 48 | 0.0 | 4.0 | 0.00 | 0.00 | 0.00 | 99 | 1010.7 |
| 20260905104612 | 70 | 84 | 2.0 | 5.0 | 0.00 | 0.00 | 0.00 | 99 | 1010.7 |
| 20260905104112 | 70 | 59 | 3.0 | 5.0 | 0.00 | 0.00 | 0.00 | 99 | 1010.9 |
| 20260905103608 | 70 | 53 | 3.0 | 6.0 | 0.00 | 0.00 | 0.00 | 99 | 1010.9 |
| 20260905103104 | 70 | 217 | 1.0 | 4.0 | 0.00 | 0.00 | 0.00 | 99 | 1010.7 |
| 20260905102554 | 70 | 124 | 0.0 | 4.0 | 0.00 | 0.00 | 0.00 | 99 | 1010.3 |
| 20260905102051 | 71 | 113 | 2.0 | 4.0 | 0.00 | 0.00 | 0.00 | 99 | 1010.3 |
| 20260905101549 | 71 | 49 | 3.0 | 5.0 | 0.00 | 0.00 | 0.00 | 99 | 1010.1 |
| 20260905101047 | 71 | 68 | 4.0 | 6.0 | 0.00 | 0.00 | 0.00 | 99 | 1010.2 |
| 20260905100544 | 71 | 119 | 1.0 | 3.0 | 0.00 | 0.00 | 0.00 | 99 | 1010.2 |
| 20260905100043 | 71 | 195 | 1.0 | 5.0 | 0.00 | 0.00 | 0.00 | 99 | 1010.2 |
| 20260905095537 | 71 | 124 | 0.0 | 3.0 | 0.00 | 0.00 | 0.00 | 99 | 1010.3 |
| 20260905095033 | 71 | 47 | 2.0 | 3.0 | 0.00 | 0.00 | 0.00 | 99 | 1010.2 |
| 20260905094528 | 71 | 42 | 1.0 | 5.0 | 0.00 | 0.00 | 0.00 | 99 | 1010.1 |
| 20260905094027 | 71 | 143 | 1.0 | 3.0 | 0.00 | 0.00 | 0.00 | 99 | 1009.8 |
| 20260905093516 | 71 | 19 | 2.0 | 4.0 | 0.00 | 0.00 | 0.00 | 99 | 1009.6 |
| 20260905093013 | 71 | 7 | 0.0 | 4.0 | 0.00 | 0.00 | 0.00 | 99 | 1010.1 |
| 20260905092513 | 71 | 192 | 0.0 | 4.0 | 0.00 | 0.00 | 0.00 | 99 | 1009.9 |
| 20260905092009 | 71 | 31 | 0.0 | 6.0 | 0.00 | 0.00 | 0.00 | 99 | 1010.1 |
| 20260905091508 | 71 | 53 | 0.0 | 3.0 | 0.00 | 0.00 | 0.00 | 99 | 1010.2 |
| 20260905091002 | 71 | 121 | 1.0 | 5.0 | 0.00 | 0.00 | 0.00 | 99 | 1010.2 |
| 20260905090457 | 71 | 357 | 1.0 | 6.0 | 0.00 | 0.00 | 0.00 | 99 | 1010.4 |
| 20260905085956 | 71 | 94 | 1.0 | 4.0 | 0.00 | 0.00 | 0.00 | 99 | 1010.2 |
| 20260905085455 | 71 | 50 | 2.0 | 5.0 | 0.00 | 0.00 | 0.00 | 99 | 1010.0 |
| 20260905084952 | 71 | 72 | 2.0 | 4.0 | 0.00 | 0.00 | 0.00 | 99 | 1010.2 |
| 20260905084451 | 71 | 19 | 3.0 | 5.0 | 0.00 | 0.00 | 0.00 | 99 | 1010.3 |
| 20260905083951 | 71 | 59 | 2.0 | 5.0 | 0.00 | 0.00 | 0.00 | 99 | 1010.8 |
| 20260905083447 | 71 | 38 | 3.0 | 4.0 | 0.00 | 0.00 | 0.00 | 99 | 1010.3 |
| 20260905082942 | 71 | 61 | 3.0 | 5.0 | 0.00 | 0.00 | 0.00 | 99 | 1010.5 |
| 20260905082438 | 71 | 41 | 0.0 | 4.0 | 0.00 | 0.00 | 0.00 | 99 | 1010.6 |
| 20260905081933 | 71 | 49 | 3.0 | 4.0 | 0.00 | 0.00 | 0.00 | 99 | 1010.7 |
| 20260905081428 | 71 | 41 | 2.0 | 5.0 | 0.00 | 0.00 | 0.00 | 99 | 1010.5 |
| 20260905080927 | 70 | 36 | 1.0 | 4.0 | 0.00 | 0.00 | 0.00 | 99 | 1010.5 |
| 20260905080421 | 70 | 17 | 2.0 | 3.0 | 0.00 | 0.00 | 0.00 | 99 | 1010.7 |
| 20260905075920 | 70 | 25 | 1.0 | 3.0 | 0.00 | 0.00 | 0.00 | 99 | 1010.5 |
| 20260905075415 | 70 | 19 | 1.0 | 4.0 | 0.00 | 0.00 | 0.00 | 99 | 1010.7 |
| 20260905074914 | 70 | 70 | 2.0 | 5.0 | 0.00 | 0.00 | 0.00 | 99 | 1010.6 |
| 20260905074410 | 70 | 30 | 2.0 | 5.0 | 0.00 | 0.00 | 0.00 | 99 | 1010.5 |
| 20260905073906 | 70 | 14 | 2.0 | 5.0 | 0.00 | 0.00 | 0.00 | 99 | 1010.4 |
| 20260905073400 | 70 | 40 | 3.0 | 5.0 | 0.00 | 0.00 | 0.00 | 99 | 1010.2 |
| 20260905072856 | 70 | 31 | 2.0 | 3.0 | 0.00 | 0.00 | 0.00 | 99 | 1010.3 |
| 20260905072350 | 70 | 27 | 1.0 | 3.0 | 0.00 | 0.00 | 0.00 | 99 | 1010.2 |
| 20260905071846 | 70 | 61 | 0.0 | 3.0 | 0.00 | 0.00 | 0.00 | 99 | 1010.6 |
| 20260905071337 | 70 | 141 | 0.0 | 1.0 | 0.00 | 0.00 | 0.00 | 99 | 1010.4 |
| 20260905070831 | 70 | 321 | 0.0 | 3.0 | 0.00 | 0.00 | 0.00 | 99 | 1010.4 |
| 20260905070328 | 70 | 37 | 2.0 | 3.0 | 0.00 | 0.00 | 0.00 | 99 | 1010.4 |
| 20260905065827 | 71 | 45 | 0.0 | 3.0 | 0.00 | 0.00 | 0.00 | 99 | 1010.3 |
| 20260905065325 | 70 | 269 | 0.0 | 2.0 | 0.00 | 0.00 | 0.00 | 99 | 1010.2 |
| 20260905064821 | 70 | 29 | 1.0 | 2.0 | 0.00 | 0.00 | 0.00 | 99 | 1010.3 |
| 20260905064316 | 70 | 18 | 0.0 | 2.0 | 0.00 | 0.00 | 0.00 | 99 | 1010.3 |
| 20260905063814 | 71 | 344 | 0.0 | 3.0 | 0.00 | 0.00 | 0.00 | 99 | 1010.4 |
| 20260905063311 | 71 | 312 | 0.0 | 2.0 | 0.00 | 0.00 | 0.00 | 99 | 1010.2 |
| 20260905062807 | 71 | 346 | 1.0 | 3.0 | 0.00 | 0.00 | 0.00 | 99 | 1010.0 |
| 20260905062305 | 72 | 318 | 2.0 | 3.0 | 0.00 | 0.00 | 0.00 | 99 | 1010.1 |
| 20260905061755 | 72 | 302 | 1.0 | 3.0 | 0.00 | 0.00 | 0.00 | 99 | 1010.1 |
| 20260905061249 | 72 | 7 | 0.0 | 3.0 | 0.00 | 0.00 | 0.00 | 99 | 1010.1 |
| 20260905060744 | 72 | 60 | 0.0 | 2.0 | 0.00 | 0.00 | 0.00 | 98 | 1010.2 |
| 20260905060242 | 72 | 45 | 0.0 | 2.0 | 0.00 | 0.00 | 0.00 | 98 | 1010.3 |
| 20260905055740 | 73 | 1 | 0.0 | 2.0 | 0.00 | 0.00 | 0.00 | 98 | 1009.9 |
| 20260905055235 | 73 | 48 | 0.0 | 3.0 | 0.00 | 0.00 | 0.00 | 98 | 1009.8 |
| 20260905054730 | 73 | 69 | 0.0 | 3.0 | 0.00 | 0.00 | 0.00 | 98 | 1010.0 |
| 20260905054227 | 73 | 54 | 2.0 | 4.0 | 0.00 | 0.00 | 0.00 | 98 | 1009.8 |
| 20260905053725 | 73 | 44 | 2.0 | 4.0 | 0.00 | 0.00 | 0.00 | 97 | 1010.1 |
| 20260905053221 | 73 | 45 | 3.0 | 4.0 | 0.00 | 0.00 | 0.00 | 97 | 1009.9 |
| 20260905052715 | 73 | 45 | 2.0 | 5.0 | 0.00 | 0.00 | 0.00 | 97 | 1009.9 |
| 20260905052210 | 74 | 26 | 2.0 | 5.0 | 0.00 | 0.00 | 0.00 | 97 | 1010.0 |
| 20260905051709 | 74 | 9 | 2.0 | 5.0 | 0.00 | 0.00 | 0.00 | 97 | 1009.9 |
| 20260905051207 | 74 | 33 | 2.0 | 3.0 | 0.00 | 0.00 | 0.00 | 97 | 1009.8 |
| 20260905050702 | 74 | 357 | 2.0 | 4.0 | 0.00 | 0.00 | 0.00 | 97 | 1009.9 |
| 20260905050159 | 74 | 20 | 4.0 | 6.0 | 0.00 | 0.00 | 0.00 | 98 | 1009.7 |
| 20260905045658 | 74 | 16 | 2.0 | 4.0 | 0.00 | 0.00 | 0.00 | 98 | 1009.6 |
| 20260905045154 | 74 | 14 | 2.0 | 5.0 | 0.00 | 0.00 | 0.00 | 98 | 1009.7 |
| 20260905044649 | 74 | 26 | 4.0 | 6.0 | 0.00 | 0.00 | 0.00 | 98 | 1009.8 |
| 20260905044144 | 74 | 11 | 1.0 | 4.0 | 0.00 | 0.00 | 0.00 | 98 | 1009.6 |
| 20260905043642 | 75 | 328 | 1.0 | 3.0 | 0.00 | 0.00 | 0.00 | 98 | 1009.5 |
| 20260905043138 | 75 | 329 | 0.0 | 3.0 | 0.00 | 0.00 | 0.00 | 98 | 1009.6 |
| 20260905042637 | 75 | 0 | 2.0 | 3.0 | 0.00 | 0.00 | 0.00 | 97 | 1009.8 |
| 20260905042131 | 75 | 354 | 2.0 | 2.0 | 0.00 | 0.00 | 0.00 | 97 | 1009.6 |
| 20260905041627 | 76 | 322 | 1.0 | 2.0 | 0.00 | 0.00 | 0.00 | 96 | 1009.6 |
| 20260905041122 | 76 | 4 | 0.0 | 3.0 | 0.00 | 0.00 | 0.00 | 96 | 1009.6 |
| 20260905040617 | 77 | 20 | 1.0 | 2.0 | 0.00 | 0.00 | 0.00 | 96 | 1009.6 |
| 20260905040116 | 77 | 30 | 2.0 | 3.0 | 0.00 | 0.00 | 0.00 | 96 | 1009.8 |
| 20260905035611 | 77 | 25 | 2.0 | 3.0 | 0.00 | 0.00 | 0.00 | 96 | 1009.8 |
| 20260905035107 | 77 | 20 | 2.0 | 3.0 | 0.00 | 0.00 | 0.00 | 96 | 1009.7 |
| 20260905034602 | 77 | 36 | 2.0 | 3.0 | 0.00 | 0.00 | 0.00 | 96 | 1009.8 |
| 20260905034056 | 77 | 18 | 2.0 | 2.0 | 0.00 | 0.00 | 0.00 | 96 | 1009.7 |
| 20260905033551 | 77 | 47 | 0.0 | 3.0 | 0.00 | 0.00 | 0.00 | 95 | 1009.5 |
| 20260905033047 | 78 | 11 | 2.0 | 5.0 | 0.00 | 0.00 | 0.00 | 95 | 1009.5 |
| 20260905032546 | 78 | 1 | 2.0 | 3.0 | 0.00 | 0.00 | 0.00 | 95 | 1009.5 |
| 20260905032041 | 78 | 25 | 1.0 | 4.0 | 0.00 | 0.00 | 0.00 | 95 | 1009.7 |
| 20260905031537 | 78 | 18 | 3.0 | 5.0 | 0.00 | 0.00 | 0.00 | 95 | 1009.7 |
| 20260905031037 | 78 | 14 | 0.0 | 4.0 | 0.00 | 0.00 | 0.00 | 95 | 1009.7 |
| 20260905030532 | 78 | 34 | 2.0 | 4.0 | 0.00 | 0.00 | 0.00 | 95 | 1009.8 |
| 20260905030027 | 78 | 36 | 0.0 | 4.0 | 0.00 | 0.00 | 0.00 | 95 | 1009.6 |
| 20260905025522 | 78 | 16 | 0.0 | 3.0 | 0.00 | 0.00 | 0.00 | 94 | 1009.8 |
| 20260905025018 | 79 | 11 | 1.0 | 3.0 | 0.00 | 0.00 | 0.00 | 94 | 1009.7 |
| 20260905024513 | 79 | 359 | 2.0 | 4.0 | 0.00 | 0.00 | 0.00 | 94 | 1009.7 |
| 20260905024009 | 79 | 20 | 1.0 | 4.0 | 0.00 | 0.00 | 0.00 | 94 | 1009.6 |
| 20260905023509 | 79 | 4 | 2.0 | 5.0 | 0.00 | 0.00 | 0.00 | 94 | 1009.7 |
| 20260905023003 | 79 | 10 | 2.0 | 5.0 | 0.00 | 0.00 | 0.00 | 94 | 1009.8 |
| 20260905022458 | 79 | 23 | 2.0 | 5.0 | 0.00 | 0.00 | 0.00 | 94 | 1009.5 |
| 20260905021953 | 80 | 24 | 2.0 | 6.0 | 0.00 | 0.00 | 0.00 | 94 | 1009.5 |
| 20260905021452 | 80 | 50 | 4.0 | 5.0 | 0.00 | 0.00 | 0.00 | 94 | 1009.2 |
| 20260905020948 | 80 | 20 | 3.0 | 5.0 | 0.00 | 0.00 | 0.00 | 93 | 1009.3 |
| 20260905020447 | 80 | 37 | 3.0 | 6.0 | 0.00 | 0.00 | 0.00 | 93 | 1009.3 |
| 20260905015942 | 80 | 29 | 2.0 | 6.0 | 0.00 | 0.00 | 0.00 | 93 | 1009.1 |
| 20260905015440 | 80 | 23 | 4.0 | 7.0 | 0.00 | 0.00 | 0.00 | 93 | 1009.1 |
| 20260905014939 | 81 | 9 | 3.0 | 9.0 | 0.00 | 0.00 | 0.00 | 93 | 1009.1 |
| 20260905014435 | 81 | 44 | 2.0 | 7.0 | 0.00 | 0.00 | 0.00 | 93 | 1009.1 |
| 20260905013930 | 81 | 15 | 3.0 | 5.0 | 0.00 | 0.00 | 0.00 | 93 | 1009.2 |
| 20260905013427 | 82 | 47 | 0.0 | 3.0 | 0.00 | 0.00 | 0.00 | 93 | 1009.3 |
| 20260905012921 | 82 | 40 | 3.0 | 5.0 | 0.00 | 0.00 | 0.00 | 92 | 1009.0 |
| 20260905012417 | 82 | 28 | 3.0 | 5.0 | 0.00 | 0.00 | 0.00 | 92 | 1008.8 |
| 20260905011913 | 82 | 26 | 2.0 | 6.0 | 0.00 | 0.00 | 0.00 | 92 | 1008.8 |
| 20260905011408 | 82 | 15 | 1.0 | 6.0 | 0.00 | 0.00 | 0.00 | 92 | 1008.7 |
| 20260905010903 | 82 | 30 | 3.0 | 6.0 | 0.00 | 0.00 | 0.00 | 92 | 1008.7 |
| 20260905010358 | 82 | 15 | 1.0 | 6.0 | 0.00 | 0.00 | 0.00 | 92 | 1008.6 |
| 20260905005855 | 83 | 19 | 1.0 | 4.0 | 0.00 | 0.00 | 0.00 | 91 | 1008.5 |
| 20260905005350 | 84 | 0 | 4.0 | 4.0 | 0.00 | 0.00 | 0.00 | 89 | 1008.1 |
| 20260905004845 | 84 | 30 | 1.0 | 3.0 | 0.00 | 0.00 | 0.00 | 87 | 1008.1 |
| 20260905004340 | 84 | 28 | 1.0 | 2.0 | 0.00 | 0.00 | 0.00 | 86 | 1007.9 |
| 20260905003836 | 84 | 50 | 0.0 | 2.0 | 0.00 | 0.00 | 0.00 | 86 | 1007.9 |
| 20260905003331 | 85 | 186 | 0.0 | 1.0 | 0.00 | 0.00 | 0.00 | 85 | 1008.0 |
| 20260905002826 | 86 | 150 | 0.0 | 5.0 | 0.00 | 0.00 | 0.00 | 84 | 1007.8 |
| 20260905002321 | 86 | 224 | 0.0 | 3.0 | 0.00 | 0.00 | 0.00 | 82 | 1007.7 |
| 20260905001816 | 86 | 191 | 4.0 | 5.0 | 0.00 | 0.00 | 0.00 | 82 | 1007.6 |
| 20260905001315 | 86 | 232 | 3.0 | 6.0 | 0.00 | 0.00 | 0.00 | 81 | 1007.7 |
| 20260905000811 | 86 | 223 | 2.0 | 4.0 | 0.00 | 0.00 | 0.00 | 81 | 1007.5 |
| 20260905000306 | 87 | 202 | 2.0 | 3.0 | 0.00 | 0.00 | 0.00 | 80 | 1007.6 |
| 20260904235801 | 87 | 228 | 2.0 | 3.0 | 0.00 | 0.00 | 0.00 | 79 | 1007.6 |
| 20260904235256 | 87 | 212 | 2.0 | 4.0 | 0.00 | 0.00 | 0.00 | 79 | 1007.7 |
| 20260904234751 | 88 | 199 | 2.0 | 4.0 | 0.00 | 0.00 | 0.00 | 77 | 1008.0 |
| 20260904234246 | 88 | 190 | 2.0 | 6.0 | 0.00 | 0.00 | 0.00 | 77 | 1007.8 |
| 20260904233742 | 88 | 215 | 4.0 | 6.0 | 0.00 | 0.00 | 0.00 | 76 | 1007.7 |
| 20260904233238 | 88 | 229 | 5.0 | 6.0 | 0.00 | 0.00 | 0.00 | 76 | 1007.7 |
| 20260904232734 | 89 | 200 | 3.0 | 7.0 | 0.00 | 0.00 | 0.00 | 76 | 1007.8 |
| 20260904232230 | 89 | 203 | 3.0 | 7.0 | 0.00 | 0.00 | 0.00 | 75 | 1007.7 |
| 20260904231725 | 89 | 201 | 5.0 | 6.0 | 0.00 | 0.00 | 0.00 | 74 | 1007.6 |
| 20260904231221 | 90 | 235 | 3.0 | 7.0 | 0.00 | 0.00 | 0.00 | 75 | 1007.6 |
| 20260904230721 | 90 | 198 | 4.0 | 7.0 | 0.00 | 0.00 | 0.00 | 73 | 1007.9 |
| 20260904230215 | 90 | 225 | 4.0 | 6.0 | 0.00 | 0.00 | 0.00 | 73 | 1007.8 |
| 20260904225714 | 91 | 201 | 6.0 | 6.0 | 0.00 | 0.00 | 0.00 | 72 | 1007.5 |
| 20260904225209 | 90 | 168 | 2.0 | 8.0 | 0.00 | 0.00 | 0.00 | 73 | 1007.8 |
| 20260904224708 | 91 | 197 | 5.0 | 6.0 | 0.00 | 0.00 | 0.00 | 71 | 1007.5 |
| 20260904224203 | 91 | 200 | 3.0 | 7.0 | 0.00 | 0.00 | 0.00 | 71 | 1007.7 |
| 20260904223702 | 90 | 201 | 6.0 | 9.0 | 0.00 | 0.00 | 0.00 | 71 | 1007.5 |
| 20260904223157 | 91 | 208 | 5.0 | 9.0 | 0.00 | 0.00 | 0.00 | 71 | 1007.6 |
| 20260904222653 | 92 | 227 | 2.0 | 5.0 | 0.00 | 0.00 | 0.00 | 69 | 1007.3 |
| 20260904222148 | 91 | 207 | 3.0 | 6.0 | 0.00 | 0.00 | 0.00 | 71 | 1007.3 |
| 20260904221648 | 92 | 221 | 5.0 | 5.0 | 0.00 | 0.00 | 0.00 | 69 | 1007.5 |
| 20260904221143 | 91 | 207 | 6.0 | 11.0 | 0.00 | 0.00 | 0.00 | 72 | 1007.2 |
| 20260904220638 | 91 | 197 | 3.0 | 8.0 | 0.00 | 0.00 | 0.00 | 72 | 1007.1 |
| 20260904220133 | 91 | 225 | 4.0 | 10.0 | 0.00 | 0.00 | 0.00 | 71 | 1007.4 |
| 20260904215627 | 91 | 228 | 1.0 | 8.0 | 0.00 | 0.00 | 0.00 | 72 | 1007.4 |
| 20260904215124 | 91 | 213 | 5.0 | 9.0 | 0.00 | 0.00 | 0.00 | 72 | 1007.4 |
| 20260904214623 | 91 | 222 | 5.0 | 7.0 | 0.00 | 0.00 | 0.00 | 72 | 1007.2 |
| 20260904214119 | 90 | 207 | 6.0 | 9.0 | 0.00 | 0.00 | 0.00 | 73 | 1007.2 |
| 20260904213617 | 90 | 191 | 8.0 | 13.0 | 0.00 | 0.00 | 0.00 | 72 | 1007.0 |
| 20260904213113 | 91 | 206 | 8.0 | 11.0 | 0.00 | 0.00 | 0.00 | 70 | 1007.3 |
| 20260904212608 | 92 | 207 | 2.0 | 8.0 | 0.00 | 0.00 | 0.00 | 71 | 1007.3 |
| 20260904212103 | 91 | 209 | 7.0 | 8.0 | 0.00 | 0.00 | 0.00 | 70 | 1007.3 |
| 20260904211603 | 91 | 199 | 6.0 | 8.0 | 0.00 | 0.00 | 0.00 | 72 | 1007.4 |
| 20260904211058 | 91 | 198 | 7.0 | 9.0 | 0.00 | 0.00 | 0.00 | 70 | 1007.2 |
| 20260904210557 | 91 | 175 | 3.0 | 7.0 | 0.00 | 0.00 | 0.00 | 72 | 1007.3 |
| 20260904210054 | 91 | 212 | 5.0 | 7.0 | 0.00 | 0.00 | 0.00 | 71 | 1007.5 |
| 20260904205549 | 91 | 187 | 6.0 | 6.0 | 0.00 | 0.00 | 0.00 | 70 | 1007.5 |
| 20260904205045 | 91 | 195 | 6.0 | 8.0 | 0.00 | 0.00 | 0.00 | 69 | 1007.3 |
| 20260904204541 | 90 | 186 | 4.0 | 9.0 | 0.00 | 0.00 | 0.00 | 71 | 1007.5 |
| 20260904204037 | 90 | 207 | 5.0 | 7.0 | 0.00 | 0.00 | 0.00 | 71 | 1007.3 |
| 20260904203532 | 90 | 198 | 5.0 | 9.0 | 0.00 | 0.00 | 0.00 | 72 | 1007.4 |
| 20260904203029 | 90 | 206 | 5.0 | 9.0 | 0.00 | 0.00 | 0.00 | 71 | 1007.2 |
| 20260904202525 | 90 | 185 | 4.0 | 10.0 | 0.00 | 0.00 | 0.00 | 72 | 1007.1 |
| 20260904202021 | 91 | 200 | 4.0 | 8.0 | 0.00 | 0.00 | 0.00 | 71 | 1007.2 |
| 20260904201515 | 91 | 199 | 3.0 | 7.0 | 0.00 | 0.00 | 0.00 | 71 | 1007.3 |
| 20260904201011 | 91 | 206 | 6.0 | 10.0 | 0.00 | 0.00 | 0.00 | 70 | 1007.4 |
| 20260904200509 | 91 | 197 | 5.0 | 7.0 | 0.00 | 0.00 | 0.00 | 69 | 1007.3 |
| 20260904200005 | 91 | 207 | 6.0 | 9.0 | 0.00 | 0.00 | 0.00 | 69 | 1007.3 |
| 20260904195503 | 93 | 174 | 1.0 | 5.0 | 0.00 | 0.00 | 0.00 | 69 | 1007.2 |
| 20260904195002 | 92 | 199 | 3.0 | 7.0 | 0.00 | 0.00 | 0.00 | 71 | 1007.2 |
| 20260904194457 | 92 | 136 | 3.0 | 5.0 | 0.00 | 0.00 | 0.00 | 70 | 1007.6 |
| 20260904193952 | 91 | 232 | 1.0 | 8.0 | 0.00 | 0.00 | 0.00 | 69 | 1007.5 |
| 20260904193447 | 90 | 197 | 3.0 | 8.0 | 0.00 | 0.00 | 0.00 | 72 | 1007.2 |
| 20260904192943 | 90 | 205 | 4.0 | 7.0 | 0.00 | 0.00 | 0.00 | 74 | 1007.2 |
| 20260904192437 | 90 | 197 | 5.0 | 9.0 | 0.00 | 0.00 | 0.00 | 71 | 1007.4 |
| 20260904191934 | 90 | 206 | 6.0 | 13.0 | 0.00 | 0.00 | 0.00 | 72 | 1007.1 |
| 20260904191430 | 91 | 186 | 4.0 | 10.0 | 0.00 | 0.00 | 0.00 | 72 | 1007.4 |
| 20260904190927 | 91 | 240 | 3.0 | 6.0 | 0.00 | 0.00 | 0.00 | 73 | 1007.3 |
| 20260904190427 | 91 | 182 | 5.0 | 7.0 | 0.00 | 0.00 | 0.00 | 75 | 1007.1 |
| 20260904185923 | 91 | 156 | 3.0 | 7.0 | 0.00 | 0.00 | 0.00 | 72 | 1007.3 |
| 20260904185419 | 91 | 197 | 6.0 | 9.0 | 0.00 | 0.00 | 0.00 | 72 | 1007.1 |
| 20260904184913 | 91 | 204 | 4.0 | 7.0 | 0.00 | 0.00 | 0.00 | 72 | 1007.3 |
| 20260904184407 | 90 | 196 | 3.0 | 8.0 | 0.00 | 0.00 | 0.00 | 74 | 1007.2 |
| 20260904183903 | 90 | 229 | 7.0 | 9.0 | 0.00 | 0.00 | 0.00 | 72 | 1007.4 |
| 20260904183358 | 90 | 207 | 2.0 | 8.0 | 0.00 | 0.00 | 0.00 | 74 | 1007.3 |
| 20260904182854 | 90 | 208 | 6.0 | 8.0 | 0.00 | 0.00 | 0.00 | 72 | 1007.2 |
| 20260904182348 | 90 | 200 | 6.0 | 8.0 | 0.00 | 0.00 | 0.00 | 71 | 1007.4 |
| 20260904181843 | 90 | 212 | 6.0 | 8.0 | 0.00 | 0.00 | 0.00 | 72 | 1007.2 |
| 20260904181338 | 89 | 222 | 8.0 | 10.0 | 0.00 | 0.00 | 0.00 | 73 | 1007.2 |
| 20260904180834 | 90 | 194 | 5.0 | 9.0 | 0.00 | 0.00 | 0.00 | 74 | 1007.4 |
| 20260904180329 | 90 | 174 | 4.0 | 8.0 | 0.00 | 0.00 | 0.00 | 71 | 1007.1 |
| 20260904175828 | 90 | 190 | 6.0 | 8.0 | 0.00 | 0.00 | 0.00 | 72 | 1007.3 |
| 20260904175327 | 89 | 208 | 5.0 | 7.0 | 0.00 | 0.00 | 0.00 | 74 | 1007.3 |
| 20260904174827 | 89 | 194 | 2.0 | 8.0 | 0.00 | 0.00 | 0.00 | 73 | 1007.1 |
| 20260904174323 | 89 | 186 | 4.0 | 7.0 | 0.00 | 0.00 | 0.00 | 75 | 1007.1 |
| 20260904173819 | 90 | 208 | 6.0 | 8.0 | 0.00 | 0.00 | 0.00 | 72 | 1007.0 |
| 20260904173314 | 89 | 205 | 4.0 | 5.0 | 0.00 | 0.00 | 0.00 | 73 | 1007.2 |
| 20260904172810 | 89 | 190 | 2.0 | 7.0 | 0.00 | 0.00 | 0.00 | 74 | 1007.1 |
| 20260904172309 | 90 | 206 | 4.0 | 7.0 | 0.00 | 0.00 | 0.00 | 72 | 1007.2 |
| 20260904171804 | 89 | 157 | 1.0 | 4.0 | 0.00 | 0.00 | 0.00 | 73 | 1007.2 |
| 20260904171259 | 89 | 149 | 2.0 | 5.0 | 0.00 | 0.00 | 0.00 | 74 | 1007.3 |
| 20260904170755 | 88 | 172 | 3.0 | 4.0 | 0.00 | 0.00 | 0.00 | 73 | 1007.4 |
| 20260904170252 | 89 | 305 | 3.0 | 4.0 | 0.00 | 0.00 | 0.00 | 72 | 1007.3 |
| 20260904165750 | 87 | 160 | 3.0 | 5.0 | 0.00 | 0.00 | 0.00 | 73 | 1007.4 |
| 20260904165249 | 87 | 207 | 3.0 | 6.0 | 0.00 | 0.00 | 0.00 | 75 | 1007.0 |
| 20260904164744 | 89 | 167 | 3.0 | 4.0 | 0.00 | 0.00 | 0.00 | 73 | 1007.3 |
| 20260904164240 | 88 | 132 | 1.0 | 6.0 | 0.00 | 0.00 | 0.00 | 74 | 1007.4 |
| 20260904163736 | 87 | 152 | 2.0 | 4.0 | 0.00 | 0.00 | 0.00 | 76 | 1007.5 |